This is the latest recevied weather packets stored in our database for station/object K4IR. If no packets are shown the sender has not sent any weather packets the latest 10 day(s).
| Time | Temp. | Humidity | Pressure | Rain* | Wind** | Luminosity | Snow |
|---|---|---|---|---|---|---|---|
| 1777899264 | 18.89° C | 73% | 1018.5 hPa | 0 mm | - | 298 W/m² | - |
| 1777898658 | 20° C | 72% | 1018.4 hPa | 0 mm | - | 237 W/m² | - |
| 1777898053 | 17.78° C | 79% | 1018.2 hPa | 0 mm | - | 196 W/m² | - |
| 1777897451 | 16.11° C | 83% | 1018.2 hPa | 0 mm | - | 79 W/m² | - |
| 1777896849 | 15° C | 92% | 1018.2 hPa | 0 mm | - | 127 W/m² | - |
| 1777896249 | 13.89° C | 99% | 1018.3 hPa | 0 mm | - | 103 W/m² | - |
| 1777895645 | 12.78° C | 99% | 1018.6 hPa | 0 mm | - | 54 W/m² | - |
| 1777895040 | 10° C | 99% | 1018.4 hPa | 0 mm | - | 67 W/m² | - |
| 1777894439 | 8.33° C | 99% | 1018.5 hPa | 0 mm | - | 37 W/m² | - |
| 1777893839 | 7.22° C | 99% | 1018.5 hPa | 0 mm | - | 30 W/m² | - |
| 1777893238 | 6.67° C | 99% | 1018.4 hPa | 0 mm | - | 27 W/m² | - |
| 1777892637 | 6.11° C | 99% | 1018.5 hPa | 0 mm | - | 22 W/m² | - |
| 1777892035 | 6.11° C | 99% | 1018.3 hPa | 0 mm | - | 17 W/m² | - |
| 1777891435 | 6.11° C | 99% | 1018.3 hPa | 0 mm | - | 12 W/m² | - |
| 1777890831 | 6.11° C | 99% | 1018.2 hPa | 0 mm | - | 7 W/m² | - |
| 1777890229 | 6.11° C | 99% | 1018.1 hPa | 0 mm | - | 3 W/m² | - |
| 1777889624 | 6.11° C | 99% | 1018.1 hPa | 0 mm | - | 1 W/m² | - |
| 1777889023 | 6.11° C | 98% | 1017.9 hPa | 0 mm | - | 0 W/m² | - |
| 1777888422 | 6.11° C | 99% | 1018 hPa | 0 mm | - | 0 W/m² | - |
| 1777887822 | 6.11° C | 98% | 1018 hPa | 0 mm | - | 0 W/m² | - |
| 1777887220 | 6.11° C | 98% | 1018 hPa | 0 mm | - | 0 W/m² | - |
| 1777886617 | 6.11° C | 98% | 1018 hPa | 0 mm | - | 0 W/m² | - |
| 1777886013 | 6.11° C | 98% | 1018.2 hPa | 0 mm | - | 0 W/m² | - |
| 1777885409 | 6.11° C | 98% | 1018.5 hPa | 0 mm | - | 0 W/m² | - |
| 1777884804 | 6.67° C | 98% | 1018.3 hPa | 0 mm | - | 0 W/m² | - |
* Rain latest hour (hover to see other rain measurements)
** Current wind speed in m/s (hover to see current wind gust speed)